Terminal Aerodrome Forecast
Issued by NWS Grand Rapids, MI

Home | Current Version | Previous Version | Text Only | Print | Product List | Glossary On
Versions: 1 2 3 4 5 6 7 8 9 10 11 12 13 14 15 16 17 18 19 20 21 22 23
000
FTUS43 KGRR 200500
TAFGRR
TAF
KGRR 200540Z 2006/2106 00000KT P6SM FEW200
     FM201800 16004KT P6SM SCT025
     FM202200 VRB03KT P6SM BKN025
     FM210200 00000KT 4SM BR OVC010=

USA.gov is the U.S. government's official web portal to all federal, state and local government web resources and services.